アトラス彗星

C/2019 C1 ( ATLAS )

English version
Home page
Updated on June 29, 2020

---------------------------------------------------------------------

・ プロフィール

発見日 2019年2月5日
発見光度 17.7等
発見者 Asteroid Terrestrial-Impact Last Alert System (ATLAS) search program

・ 写真集

・ 軌道要素

Epoch 2020 Apr. 21.0 TT = JDT 2458960.5
T 2020 May 5.69851 TT                                   Rudenko
q   6.5813438            (2000.0)            P               Q
z  +0.0012040      Peri.  319.18753     -0.92229558     -0.22385979
 +/-0.0000010      Node   212.39726     +0.19035918     -0.97255608
e   0.9920762      Incl.   36.01645     -0.33635434     +0.06341504
From 430 observations 2019 Jan. 14-2020 June 16, mean residual 0".4.

・ 星図

・ 光度変化

        m1 = 4.5 + 5 logΔ + 10.0 log r

---------------------------------------------------------------------

軌道要素はM.P.E.C. 2020-M114に掲載されたものです。
星図はステラナビゲータ Ver.10 (アストロアーツ) で作成したものです。
光度グラフはComet for Windowsで作成したものです。

---------------------------------------------------------------------

Copyright(C) Seiichi Yoshida (comet@aerith.net). All rights reserved.